Home > Weather > Nürburg > Past weeks

Flag for Germany Weather for the Past 2 Weeks in Nürburg, Rhineland-Palatinate, Germany

Now
44 °F

Passing clouds.


Feels Like: 44 °F
Forecast: 37 / 61 °F
Wind: 2 mph from East

Location: Nuerburg-Barweiler

Current Time: May 5, 2016 at 1:43:59 AM

Latest Report: May 5, 2016 at 1:00 AM


Visibility: 44 mi

Pressure: 30.36 "Hg (28.21 "Hg at 601m altitude)

Humidity: 51%

Dew Point: 27 °F

Location of NürburgLocation

Historic Weather in Nürburg — Graph

°F

Nürburg Temperature Yesterday

Maximum temperature yesterday: 55 °F (at 6:00 PM)
Minimum temperature yesterday: 33 °F (at 6:00 AM)
Average temperature yesterday: 45 °F

High & Low Weather Summary for the Past Weeks

 TemperatureHumidityPressure
High64 °F (May 2, 7:00 PM)99% (Apr 26, 12:00 AM)30.47 "Hg (Apr 26, 12:00 AM)
Low30 °F (Apr 28, 7:00 AM)30% (Apr 21, 3:00 PM)29.59 "Hg (Apr 26, 1:00 PM)
Average43 °F71%30.08 "Hg
* Reported Midnight between Apr 19 and Apr 20 — Midnight between May 4 and May 5, Nürburg, Weather by CustomWeather, © 2016

Note: Actual official high and low records may vary slightly from our data, if they occured in-between our weather recording intervals... More about our weather records

Advertising

Nürburg Weather History for the Previous 24 Hours

Scroll right to see more
 ConditionsComfort  
Time TempWeatherWind HumidityBarometerVisibility
12:00 AM
Thu, May 5
46 °FPassing clouds.2 mph48%30.35 "Hg43 mi
10:00 PM
Wed, May 4
48 °FPassing clouds.3 mph45%30.34 "Hg43 mi
9:00 PM50 °FHaze.2 mph42%30.33 "Hg43 mi
7:00 PM54 °FOvercast.2 mph37%30.32 "Hg43 mi
6:00 PM55 °FOvercast.2 mph38%30.32 "Hg37 mi
4:00 PM52 °FOvercast.3 mph40%30.35 "Hg43 mi
3:00 PM51 °FOvercast.3 mph42%30.36 "Hg37 mi
1:00 PM50 °FOvercast.3 mph47%30.38 "Hg17 mi
12:00 PM50 °FOvercast.3 mph50%30.39 "Hg22 mi
10:00 AM45 °FPartly sunny.2 mph66%30.42 "Hg14 mi
9:00 AM42 °FPassing clouds.2 mph75%30.42 "Hg18 mi
7:00 AM34 °FPassing clouds.No wind85%30.44 "Hg9 mi
6:00 AM33 °FPassing clouds.1 mph92%30.43 "Hg12 mi
4:00 AM37 °FClear.2 mph83%30.41 "Hg22 mi
3:00 AM40 °FOvercast.1 mph77%30.39 "Hg25 mi
1:00 AM40 °FPassing clouds.6 mph76%30.39 "Hg15 mi
Weather by CustomWeather, © 2016

See weather overviewHow to use our weather pages